Weather History for Stevens Point, WI

Change the Weather History Date:

Thursday, June 5, 2014

  Actual Average Record
Temperature  
Mean Temperature 64 °F -  
Max Temperature 76 °F 75 °F 89 °F (1968)
Min Temperature 52 °F 51 °F 33 °F (1954)
Degree Days  
Heating Degree Days 1    
Growing Degree Days 14 (Base 50)    
Moisture  
Dew Point 51 °F    
Average Humidity 65    
Maximum Humidity 94    
Minimum Humidity 38    
Precipitation  
Precipitation 0.00 in - - ()
Sea Level Pressure  
Sea Level Pressure 29.95 in    
Wind  
Wind Speed 3 mph (SSW)    
Max Wind Speed 9 mph    
Max Gust Speed 16 mph    
Visibility 10 miles    
Events      
Averages and records for this station are not official NWS values.
T = Trace of Precipitation, MM = Missing Value Source: NWS Daily Summary

Daily Weather History Graph

Daily Weather History Graph

Search for Another Location

Airport:

Trip Planner

Search our weather history database for the weather conditions in past years. The results will help you decide how hot, cold, wet, or windy it might be!

Date:

Astronomy

Jun. 05, 2014 Rise Set
Actual Time 5:14 AM CDT 8:39 PM CDT
Civil Twilight 4:38 AM CDT 9:15 PM CDT
Nautical Twilight 3:50 AM CDT 10:03 PM CDT
Astronomical Twilight 2:50 AM CDT 11:03 PM CDT
Moon 12:44 PM CDT (6/5) 12:54 AM CDT (6/5)
Length of Visible Light 16h 37m
Length of Day
15h 24m
Waxing Crescent, 49% of the Moon is Illuminated
Jun 5
Waxing Crescent
Jun 5
First Quarter
Jun 12
Full
Jun 19
Last Quarter
Jun 27
New

Hourly Weather History & Observations

Time (CDT) Temp. Dew Point Humidity Pressure Visibility Wind Dir Wind Speed Gust Speed Precip Events Conditions
12:15 AM 55.2 °F 50.7 °F 85% 29.96 in 10.0 mi Calm Calm - N/A   Clear
12:35 AM 54.5 °F 50.4 °F 86% 29.96 in 10.0 mi Calm Calm - N/A   Clear
12:55 AM 52.9 °F 49.1 °F 87% 29.96 in 10.0 mi ENE 3.5 mph - N/A   Clear
1:15 AM 53.2 °F 50.0 °F 89% 29.97 in 10.0 mi Calm Calm - N/A   Scattered Clouds
1:35 AM 54.5 °F 50.0 °F 85% 29.97 in 10.0 mi Calm Calm - N/A   Scattered Clouds
1:55 AM 54.9 °F 50.4 °F 85% 29.96 in 10.0 mi Calm Calm - N/A   Mostly Cloudy
2:15 AM 54.7 °F 51.3 °F 88% 29.97 in 10.0 mi Calm Calm - N/A   Overcast
2:35 AM 54.5 °F 51.4 °F 89% 29.97 in 10.0 mi Calm Calm - N/A   Overcast
2:55 AM 55.4 °F 51.6 °F 87% 29.96 in 10.0 mi Calm Calm - N/A   Overcast
3:15 AM 54.5 °F 51.3 °F 89% 29.96 in 10.0 mi Calm Calm - N/A   Scattered Clouds
3:35 AM 53.2 °F 51.1 °F 92% 29.96 in 10.0 mi Calm Calm - N/A   Scattered Clouds
3:55 AM 53.1 °F 51.3 °F 94% 29.96 in 10.0 mi Calm Calm - N/A   Mostly Cloudy
4:15 AM 52.7 °F 50.7 °F 93% 29.97 in 10.0 mi Calm Calm - N/A   Overcast
4:35 AM 54.7 °F 51.8 °F 90% 29.98 in 10.0 mi Calm Calm - N/A   Overcast
4:55 AM 54.9 °F 51.8 °F 89% 29.98 in 10.0 mi Calm Calm - N/A   Mostly Cloudy
5:15 AM 54.7 °F 51.6 °F 89% 29.99 in 10.0 mi Calm Calm - N/A   Scattered Clouds
5:35 AM 54.1 °F 52.5 °F 94% 29.98 in 10.0 mi Calm Calm - N/A   Mostly Cloudy
5:55 AM 55.6 °F 53.4 °F 92% 29.99 in 10.0 mi Calm Calm - N/A   Overcast
6:15 AM 55.4 °F 53.6 °F 94% 29.98 in 10.0 mi NE 5.8 mph - N/A   Mostly Cloudy
6:35 AM 56.5 °F 53.6 °F 90% 29.99 in 10.0 mi East 6.9 mph - N/A   Mostly Cloudy
6:55 AM 55.8 °F 52.5 °F 89% 30.00 in 10.0 mi East 6.9 mph - N/A   Overcast
7:15 AM 56.3 °F 52.5 °F 87% 29.99 in 10.0 mi ESE 4.6 mph - N/A   Mostly Cloudy
7:35 AM 57.2 °F 52.9 °F 85% 29.99 in 10.0 mi East 3.5 mph - N/A   Overcast
7:55 AM 58.6 °F 53.8 °F 84% 29.95 in 10.0 mi East 8.1 mph - N/A   Overcast
8:35 AM 60.8 °F 54.5 °F 80% 29.98 in 10.0 mi Calm Calm - N/A   Mostly Cloudy
8:55 AM 64.0 °F 55.8 °F 74% 29.99 in 10.0 mi SSW 3.5 mph - N/A   Mostly Cloudy
9:15 AM 64.2 °F 55.6 °F 73% 30.00 in 10.0 mi SSW 6.9 mph - N/A   Overcast
9:35 AM 64.4 °F 55.9 °F 74% 30.00 in 10.0 mi SSW 5.8 mph - N/A   Overcast
9:55 AM 66.4 °F 56.7 °F 71% 29.99 in 10.0 mi Calm Calm - N/A   Mostly Cloudy
10:15 AM 66.4 °F 55.9 °F 69% 29.98 in 10.0 mi SW 9.2 mph - N/A   Mostly Cloudy
10:35 AM 68.0 °F 56.5 °F 67% 29.98 in 10.0 mi SW 8.1 mph - N/A   Scattered Clouds
10:55 AM 69.1 °F 52.3 °F 55% 29.97 in 10.0 mi WSW 8.1 mph - N/A   Clear
11:15 AM 70.0 °F 52.2 °F 53% 29.97 in 10.0 mi SW 9.2 mph - N/A   Clear
11:35 AM 71.1 °F 52.3 °F 52% 29.96 in 10.0 mi South 6.9 mph - N/A   Scattered Clouds
11:55 AM 71.4 °F 53.2 °F 53% 29.95 in 10.0 mi SSW 4.6 mph 16.1 mph N/A   Mostly Cloudy
12:15 PM 70.3 °F 52.3 °F 53% 29.95 in 10.0 mi WNW 3.5 mph - N/A   Scattered Clouds
12:35 PM 71.8 °F 51.3 °F 48% 29.95 in 10.0 mi West 6.9 mph - N/A   Mostly Cloudy
12:55 PM 71.4 °F 49.6 °F 46% 29.95 in 10.0 mi Calm Calm - N/A   Overcast
1:15 PM 72.9 °F 52.3 °F 48% 29.95 in 10.0 mi WSW 6.9 mph - N/A   Overcast
1:35 PM 71.6 °F 52.0 °F 50% 29.95 in 10.0 mi Calm Calm - N/A   Overcast
1:55 PM 72.0 °F 52.2 °F 50% 29.95 in 10.0 mi South 6.9 mph - N/A   Overcast
2:15 PM 71.8 °F 50.5 °F 47% 29.95 in 10.0 mi South 6.9 mph - N/A   Overcast
2:35 PM 72.5 °F 51.8 °F 48% 29.95 in 10.0 mi SSW 5.8 mph - N/A   Overcast
2:55 PM 72.5 °F 50.7 °F 46% 29.94 in 10.0 mi Calm Calm - N/A   Overcast
3:15 PM 74.8 °F 52.2 °F 45% 29.93 in 10.0 mi West 5.8 mph - N/A   Mostly Cloudy
3:35 PM 75.2 °F 51.1 °F 43% 29.91 in 10.0 mi WNW 4.6 mph - N/A   Mostly Cloudy
3:55 PM 75.4 °F 50.2 °F 41% 29.90 in 10.0 mi SE 4.6 mph - N/A   Scattered Clouds
4:15 PM 73.8 °F 50.5 °F 44% 29.91 in 10.0 mi South 4.6 mph - N/A   Scattered Clouds
4:35 PM 74.3 °F 50.0 °F 42% 29.91 in 10.0 mi NNW 3.5 mph - N/A   Overcast
4:55 PM 75.4 °F 48.9 °F 39% 29.91 in 10.0 mi WNW 5.8 mph - N/A   Mostly Cloudy
5:15 PM 76.1 °F 48.6 °F 38% 29.91 in 10.0 mi WSW 9.2 mph - N/A   Overcast
5:35 PM 74.5 °F 48.2 °F 39% 29.91 in 10.0 mi WSW 8.1 mph - N/A   Scattered Clouds
5:55 PM 74.5 °F 49.1 °F 41% 29.91 in 10.0 mi WSW 8.1 mph - N/A   Scattered Clouds
6:15 PM 74.3 °F 49.5 °F 41% 29.91 in 10.0 mi WSW 8.1 mph - N/A   Scattered Clouds
6:35 PM 74.3 °F 49.3 °F 41% 29.91 in 10.0 mi West 6.9 mph - N/A   Clear
6:55 PM 73.9 °F 48.2 °F 40% 29.91 in 10.0 mi West 5.8 mph - N/A   Clear
7:15 PM 73.8 °F 48.4 °F 41% 29.90 in 10.0 mi WSW 5.8 mph - N/A   Clear
7:35 PM 72.0 °F 49.3 °F 45% 29.91 in 10.0 mi SW 5.8 mph - N/A   Clear
7:55 PM 70.7 °F 49.3 °F 47% 29.91 in 10.0 mi SW 6.9 mph - N/A   Clear
8:15 PM 69.4 °F 50.0 °F 50% 29.91 in 10.0 mi SW 5.8 mph - N/A   Clear
8:35 PM 68.4 °F 50.0 °F 52% 29.91 in 10.0 mi SSW 5.8 mph - N/A   Clear
8:55 PM 67.3 °F 50.4 °F 55% 29.91 in 10.0 mi SSW 4.6 mph - N/A   Clear
9:15 PM 67.1 °F 50.2 °F 55% 29.91 in 10.0 mi South 4.6 mph - N/A   Clear
9:55 PM 66.4 °F 50.0 °F 56% 29.91 in 10.0 mi SSE 5.8 mph - N/A   Clear
10:15 PM 66.2 °F 49.8 °F 55% 29.91 in 10.0 mi South 4.6 mph - N/A   Clear
10:35 PM 65.3 °F 50.2 °F 58% 29.93 in 10.0 mi South 3.5 mph - N/A   Scattered Clouds
10:55 PM 64.6 °F 50.9 °F 61% 29.93 in 10.0 mi Calm Calm - N/A   Clear
11:15 PM 64.6 °F 50.9 °F 61% 29.93 in 10.0 mi Calm Calm - N/A   Clear
11:35 PM 64.2 °F 51.1 °F 62% 29.94 in 10.0 mi South 3.5 mph - N/A   Clear
11:55 PM 63.9 °F 51.8 °F 65% 29.94 in 10.0 mi South 3.5 mph - N/A   Scattered Clouds